| time (UTC) | temp F | wind direction | speed knots | gust knots | rain 1hr in | rain 24hr in | rain mn in | humidity % | barometer mb |
| 20260506070554 | 40 | 257 | 3.5 | 4.3 | 0.00 | 0.00 | 0.00 | 89 | 1015.2 |
| 20260506062028 | 40 | 264 | 1.7 | 2.6 | 0.00 | 0.00 | 0.00 | 93 | 1015.2 |
| 20260506061523 | 40 | 282 | 2.6 | 2.6 | 0.00 | 0.00 | 0.00 | 94 | 1015.3 |
| 20260506061021 | 40 | 264 | 2.6 | 2.6 | 0.00 | 0.00 | 0.00 | 95 | 1015.1 |
| 20260506060520 | 40 | 239 | 1.7 | 2.6 | 0.00 | 0.00 | 0.00 | 96 | 1015.3 |
| 20260506050948 | 40 | 258 | 1.7 | 1.7 | 0.00 | 0.08 | 0.08 | 97 | 1015.3 |
| 20260506050446 | 40 | 263 | 0.9 | 1.7 | 0.00 | 0.08 | 0.08 | 97 | 1015.4 |
| 20260506044936 | 40 | 277 | 1.7 | 1.7 | 0.05 | 0.08 | 0.08 | 96 | 1015.3 |
| 20260506044435 | 40 | 255 | 2.6 | 2.6 | 0.00 | 0.07 | 0.07 | 96 | 1015.2 |
| 20260506043931 | 40 | 239 | 0.0 | 0.0 | 0.00 | 0.07 | 0.07 | 96 | 1015.1 |
| 20260506043429 | 40 | 236 | 0.0 | 0.0 | 0.00 | 0.07 | 0.07 | 95 | 1015.1 |
| 20260506042926 | 40 | 284 | 3.5 | 4.3 | 0.07 | 0.07 | 0.07 | 95 | 1014.9 |
| 20260506042426 | 40 | 260 | 0.0 | 0.0 | 0.14 | 0.07 | 0.07 | 94 | 1014.7 |
| 20260506041923 | 40 | 250 | 2.6 | 4.3 | 0.19 | 0.06 | 0.06 | 93 | 1015.2 |
| 20260506041421 | 40 | 264 | 0.0 | 0.0 | 0.17 | 0.05 | 0.05 | 91 | 1015.2 |
| 20260506040918 | 41 | 262 | 2.6 | 2.6 | 0.05 | 0.03 | 0.03 | 90 | 1015.1 |
| 20260506040415 | 41 | 215 | 1.7 | 2.6 | 0.00 | 0.02 | 0.02 | 88 | 1014.8 |
| 20260506035911 | 42 | 245 | 2.6 | 4.3 | 0.00 | 0.02 | 0.02 | 86 | 1014.6 |
| 20260506035409 | 42 | 169 | 3.5 | 4.3 | 0.00 | 0.02 | 0.02 | 85 | 1014.8 |
| 20260506034905 | 42 | 188 | 2.6 | 4.3 | 0.00 | 0.02 | 0.02 | 85 | 1014.7 |
| 20260506034403 | 42 | 289 | 4.3 | 7.8 | 0.00 | 0.02 | 0.02 | 85 | 1014.4 |
| 20260506033900 | 42 | 231 | 2.6 | 2.6 | 0.00 | 0.02 | 0.02 | 85 | 1014.6 |
| 20260506033357 | 42 | 157 | 1.7 | 1.7 | 0.00 | 0.02 | 0.02 | 84 | 1014.6 |
| 20260506032854 | 42 | 245 | 2.6 | 2.6 | 0.00 | 0.02 | 0.02 | 84 | 1013.9 |
| 20260506032350 | 42 | 31 | 6.1 | 13.0 | 0.00 | 0.02 | 0.02 | 84 | 1013.8 |
| 20260506031847 | 43 | 274 | 4.3 | 7.8 | 0.00 | 0.02 | 0.02 | 84 | 1013.9 |
| 20260506031345 | 43 | 19 | 1.7 | 2.6 | 0.00 | 0.02 | 0.02 | 83 | 1013.4 |
| 20260506030842 | 44 | 227 | 3.5 | 4.3 | 0.00 | 0.02 | 0.02 | 81 | 1013.4 |
| 20260506030340 | 45 | 248 | 4.3 | 7.8 | 0.00 | 0.02 | 0.02 | 78 | 1013.6 |
| 20260506025837 | 45 | 249 | 0.9 | 1.7 | 0.00 | 0.02 | 0.02 | 76 | 1013.4 |
| 20260506025333 | 45 | 315 | 3.5 | 7.8 | 0.00 | 0.02 | 0.02 | 75 | 1013.4 |
| 20260506024830 | 46 | 262 | 0.0 | 1.7 | 0.00 | 0.02 | 0.02 | 74 | 1013.2 |
| 20260506024327 | 46 | 266 | 0.0 | 0.0 | 0.00 | 0.02 | 0.02 | 73 | 1012.9 |
| 20260506023823 | 47 | 266 | 1.7 | 1.7 | 0.00 | 0.02 | 0.02 | 72 | 1013.4 |
| 20260506023320 | 47 | 257 | 1.7 | 2.6 | 0.00 | 0.02 | 0.02 | 72 | 1012.9 |
| 20260506022817 | 47 | 241 | 2.6 | 2.6 | 0.00 | 0.02 | 0.02 | 72 | 1012.9 |
| 20260506022315 | 47 | 259 | 2.6 | 2.6 | 0.00 | 0.02 | 0.02 | 72 | 1012.9 |
| 20260506021813 | 48 | 257 | 2.6 | 2.6 | 0.00 | 0.02 | 0.02 | 71 | 1012.8 |
| 20260506021309 | 48 | 260 | 1.7 | 1.7 | 0.00 | 0.02 | 0.02 | 69 | 1012.7 |
| 20260506020806 | 48 | 261 | 1.7 | 1.7 | 0.00 | 0.02 | 0.02 | 68 | 1012.7 |
| 20260506020304 | 48 | 278 | 2.6 | 4.3 | 0.00 | 0.02 | 0.02 | 68 | 1012.7 |
| 20260506015801 | 48 | 275 | 2.6 | 2.6 | 0.00 | 0.02 | 0.02 | 68 | 1012.4 |
| 20260506015258 | 49 | 257 | 2.6 | 2.6 | 0.00 | 0.02 | 0.02 | 67 | 1012.4 |
| 20260506014755 | 49 | 257 | 0.9 | 1.7 | 0.00 | 0.02 | 0.02 | 66 | 1012.1 |
| 20260506014252 | 49 | 225 | 2.6 | 2.6 | 0.00 | 0.02 | 0.02 | 66 | 1012.6 |
| 20260506013749 | 50 | 235 | 5.2 | 7.8 | 0.00 | 0.02 | 0.02 | 66 | 1012.7 |
| 20260506013246 | 50 | 226 | 3.5 | 4.3 | 0.00 | 0.02 | 0.02 | 65 | 1012.2 |
| 20260506012742 | 50 | 224 | 4.3 | 7.8 | 0.00 | 0.02 | 0.02 | 65 | 1012.3 |
| 20260506012239 | 50 | 240 | 4.3 | 6.1 | 0.00 | 0.02 | 0.02 | 64 | 1012.1 |
| 20260506011737 | 50 | 267 | 2.6 | 2.6 | 0.00 | 0.02 | 0.02 | 63 | 1011.8 |
| 20260506011233 | 50 | 247 | 5.2 | 6.1 | 0.00 | 0.02 | 0.02 | 63 | 1011.8 |
| 20260506010731 | 50 | 281 | 4.3 | 6.1 | 0.00 | 0.02 | 0.02 | 63 | 1012.3 |
| 20260506010228 | 50 | 245 | 4.3 | 7.8 | 0.00 | 0.02 | 0.02 | 63 | 1012.2 |
| 20260506005725 | 49 | 271 | 6.1 | 7.8 | 0.00 | 0.02 | 0.02 | 63 | 1012.1 |
| 20260506005222 | 50 | 251 | 4.3 | 6.1 | 0.00 | 0.02 | 0.02 | 62 | 1011.8 |
| 20260506004718 | 50 | 205 | 4.3 | 6.1 | 0.00 | 0.02 | 0.02 | 61 | 1011.8 |
| 20260506004216 | 50 | 266 | 5.2 | 7.8 | 0.00 | 0.02 | 0.02 | 61 | 1011.9 |
| 20260506003711 | 50 | 270 | 5.2 | 6.1 | 0.00 | 0.02 | 0.02 | 61 | 1012.1 |
| 20260506003208 | 50 | 224 | 5.2 | 7.8 | 0.00 | 0.02 | 0.02 | 60 | 1011.8 |
| 20260506002704 | 50 | 267 | 8.7 | 13.0 | 0.00 | 0.02 | 0.02 | 60 | 1012.1 |
| 20260506002200 | 51 | 253 | 5.2 | 6.1 | 0.00 | 0.02 | 0.02 | 59 | 1011.9 |
| 20260506001656 | 51 | 247 | 4.3 | 6.1 | 0.00 | 0.02 | 0.02 | 59 | 1011.9 |
| 20260506001154 | 51 | 241 | 6.1 | 8.7 | 0.00 | 0.02 | 0.02 | 59 | 1011.8 |
| 20260506000651 | 51 | 257 | 3.5 | 4.3 | 0.00 | 0.02 | 0.02 | 58 | 1011.8 |
| 20260506000148 | 52 | 261 | 3.5 | 6.1 | 0.00 | 0.02 | 0.02 | 56 | 1011.9 |
| 20260505235646 | 53 | 250 | 5.2 | 8.7 | 0.00 | 0.02 | 0.02 | 55 | 1011.8 |
| 20260505235143 | 51 | 268 | 5.2 | 10.4 | 0.00 | 0.02 | 0.02 | 58 | 1011.9 |
| 20260505234640 | 52 | 247 | 6.1 | 7.8 | 0.00 | 0.02 | 0.02 | 58 | 1011.9 |
| 20260505234137 | 53 | 242 | 5.2 | 6.1 | 0.00 | 0.02 | 0.02 | 55 | 1011.9 |
| 20260505233634 | 53 | 270 | 4.3 | 6.1 | 0.00 | 0.02 | 0.02 | 57 | 1011.9 |
| 20260505233131 | 54 | 273 | 6.1 | 7.8 | 0.00 | 0.02 | 0.02 | 57 | 1011.8 |
| 20260505232629 | 54 | 239 | 5.2 | 7.8 | 0.00 | 0.02 | 0.02 | 57 | 1012.1 |
| 20260505232126 | 55 | 282 | 7.8 | 12.2 | 0.00 | 0.02 | 0.02 | 54 | 1011.8 |
| 20260505231623 | 55 | 239 | 5.2 | 8.7 | 0.00 | 0.02 | 0.02 | 55 | 1011.9 |
| 20260505231122 | 53 | 265 | 2.6 | 4.3 | 0.00 | 0.02 | 0.02 | 62 | 1011.9 |
| 20260505230620 | 53 | 256 | 5.2 | 6.1 | 0.00 | 0.02 | 0.02 | 62 | 1012.1 |
| 20260505230115 | 53 | 258 | 6.1 | 7.8 | 0.00 | 0.02 | 0.02 | 63 | 1011.9 |
| 20260505225612 | 52 | 278 | 5.2 | 6.1 | 0.00 | 0.02 | 0.02 | 64 | 1011.8 |
| 20260505225108 | 52 | 222 | 7.0 | 10.4 | 0.00 | 0.02 | 0.02 | 66 | 1012.1 |
| 20260505224605 | 52 | 248 | 6.1 | 8.7 | 0.00 | 0.02 | 0.02 | 65 | 1011.9 |
| 20260505224102 | 49 | 234 | 6.1 | 7.8 | 0.00 | 0.02 | 0.02 | 68 | 1012.3 |
| 20260505223559 | 49 | 264 | 6.1 | 10.4 | 0.00 | 0.02 | 0.02 | 70 | 1012.4 |
| 20260505223055 | 49 | 286 | 6.1 | 8.7 | 0.00 | 0.02 | 0.02 | 72 | 1012.1 |
| 20260505222552 | 50 | 231 | 10.4 | 13.0 | 0.00 | 0.02 | 0.02 | 70 | 1012.3 |
| 20260505222048 | 51 | 292 | 7.8 | 12.2 | 0.00 | 0.02 | 0.02 | 67 | 1012.3 |
| 20260505221546 | 51 | 308 | 9.6 | 12.2 | 0.00 | 0.02 | 0.02 | 66 | 1012.1 |
| 20260505221042 | 53 | 268 | 7.8 | 10.4 | 0.00 | 0.02 | 0.02 | 62 | 1012.3 |
| 20260505220539 | 53 | 278 | 4.3 | 4.3 | 0.00 | 0.02 | 0.02 | 62 | 1012.4 |
| 20260505220037 | 52 | 283 | 7.0 | 7.8 | 0.00 | 0.02 | 0.02 | 66 | 1012.4 |
| 20260505215535 | 52 | 245 | 7.0 | 7.8 | 0.00 | 0.02 | 0.02 | 65 | 1012.6 |
| 20260505215032 | 51 | 269 | 5.2 | 6.1 | 0.00 | 0.02 | 0.02 | 67 | 1012.6 |
| 20260505214530 | 53 | 250 | 5.2 | 7.8 | 0.00 | 0.02 | 0.02 | 66 | 1012.3 |
| 20260505214027 | 53 | 219 | 9.6 | 12.2 | 0.00 | 0.02 | 0.02 | 62 | 1012.2 |
| 20260505213525 | 55 | 266 | 7.8 | 10.4 | 0.00 | 0.02 | 0.02 | 60 | 1012.4 |
| 20260505213021 | 53 | 230 | 4.3 | 4.3 | 0.00 | 0.02 | 0.02 | 62 | 1012.3 |
| 20260505212517 | 53 | 236 | 7.0 | 8.7 | 0.00 | 0.02 | 0.02 | 63 | 1012.4 |
| 20260505212014 | 54 | 223 | 6.1 | 7.8 | 0.00 | 0.02 | 0.02 | 62 | 1012.6 |
| 20260505211512 | 55 | 233 | 11.3 | 14.8 | 0.00 | 0.02 | 0.02 | 60 | 1012.6 |
| 20260505211008 | 53 | 247 | 7.8 | 8.7 | 0.00 | 0.02 | 0.02 | 63 | 1012.6 |
| 20260505210505 | 54 | 253 | 7.8 | 12.2 | 0.00 | 0.02 | 0.02 | 64 | 1012.8 |
| 20260505210002 | 55 | 261 | 7.0 | 8.7 | 0.00 | 0.02 | 0.02 | 61 | 1012.4 |
| 20260505205500 | 55 | 280 | 6.1 | 10.4 | 0.00 | 0.02 | 0.02 | 62 | 1012.6 |
| 20260505204956 | 55 | 254 | 7.8 | 13.0 | 0.00 | 0.02 | 0.02 | 62 | 1012.3 |
| 20260505204455 | 54 | 268 | 8.7 | 13.0 | 0.00 | 0.02 | 0.02 | 64 | 1012.6 |
| 20260505203952 | 54 | 277 | 7.8 | 10.4 | 0.00 | 0.02 | 0.02 | 65 | 1012.3 |
| 20260505203448 | 54 | 337 | 4.3 | 6.1 | 0.00 | 0.02 | 0.02 | 65 | 1012.7 |
| 20260505202944 | 53 | 259 | 7.0 | 8.7 | 0.00 | 0.02 | 0.02 | 67 | 1013.1 |
| 20260505202441 | 53 | 225 | 6.1 | 10.4 | 0.00 | 0.02 | 0.02 | 67 | 1012.9 |
| 20260505201937 | 52 | 265 | 7.8 | 13.0 | 0.00 | 0.02 | 0.02 | 70 | 1012.7 |
| 20260505201434 | 51 | 281 | 7.8 | 10.4 | 0.00 | 0.02 | 0.02 | 74 | 1012.9 |
| 20260505200932 | 51 | 274 | 7.8 | 10.4 | 0.00 | 0.02 | 0.02 | 73 | 1012.9 |
| 20260505200429 | 51 | 277 | 5.2 | 6.1 | 0.00 | 0.02 | 0.02 | 75 | 1012.6 |
| 20260505195925 | 53 | 258 | 7.0 | 8.7 | 0.00 | 0.02 | 0.02 | 72 | 1012.8 |
| 20260505195422 | 52 | 234 | 9.6 | 13.0 | 0.00 | 0.02 | 0.02 | 73 | 1012.7 |
| 20260505194920 | 51 | 279 | 7.8 | 10.4 | 0.00 | 0.02 | 0.02 | 77 | 1013.2 |
| 20260505194417 | 51 | 285 | 8.7 | 12.2 | 0.00 | 0.02 | 0.02 | 81 | 1013.2 |
| 20260505193917 | 49 | 300 | 7.0 | 8.7 | 0.00 | 0.02 | 0.02 | 86 | 1013.1 |
| 20260505193415 | 50 | 230 | 7.8 | 10.4 | 0.00 | 0.02 | 0.02 | 90 | 1012.8 |
| 20260505192912 | 48 | 309 | 7.0 | 10.4 | 0.00 | 0.02 | 0.02 | 93 | 1013.2 |
| 20260505192410 | 49 | 291 | 7.8 | 12.2 | 0.00 | 0.02 | 0.02 | 94 | 1013.4 |
| 20260505191908 | 48 | 300 | 6.1 | 8.7 | 0.00 | 0.02 | 0.02 | 95 | 1013.1 |
| 20260505191406 | 47 | 266 | 6.1 | 7.8 | 0.07 | 0.02 | 0.02 | 94 | 1013.3 |
| 20260505190903 | 47 | 326 | 7.0 | 10.4 | 0.12 | 0.02 | 0.02 | 92 | 1013.3 |
| 20260505190358 | 47 | 268 | 7.8 | 10.4 | 0.05 | 0.01 | 0.01 | 90 | 1013.7 |
| 20260505185853 | 48 | 244 | 6.1 | 10.4 | 0.00 | 0.00 | 0.00 | 83 | 1013.7 |
| 20260505185350 | 53 | 210 | 7.0 | 7.8 | 0.00 | 0.00 | 0.00 | 68 | 1013.3 |
| 20260505184847 | 54 | 254 | 5.2 | 6.1 | 0.00 | 0.00 | 0.00 | 59 | 1013.2 |
| 20260505184344 | 54 | 285 | 9.6 | 10.4 | 0.00 | 0.00 | 0.00 | 58 | 1013.1 |
| 20260505183841 | 54 | 223 | 6.1 | 7.8 | 0.00 | 0.00 | 0.00 | 58 | 1013.3 |
| 20260505183337 | 55 | 257 | 5.2 | 7.8 | 0.00 | 0.00 | 0.00 | 57 | 1013.3 |
| 20260505182834 | 55 | 244 | 9.6 | 13.0 | 0.00 | 0.00 | 0.00 | 57 | 1013.2 |
| 20260505182331 | 54 | 276 | 10.4 | 13.0 | 0.00 | 0.00 | 0.00 | 59 | 1013.1 |
| 20260505181828 | 55 | 260 | 7.8 | 12.2 | 0.00 | 0.00 | 0.00 | 58 | 1013.3 |
| 20260505181325 | 53 | 228 | 4.3 | 6.1 | 0.00 | 0.00 | 0.00 | 62 | 1013.4 |
| 20260505180821 | 53 | 246 | 6.1 | 6.1 | 0.00 | 0.00 | 0.00 | 61 | 1013.7 |
| 20260505180318 | 53 | 252 | 9.6 | 14.8 | 0.00 | 0.00 | 0.00 | 60 | 1013.6 |
| 20260505175814 | 54 | 255 | 6.1 | 7.8 | 0.00 | 0.00 | 0.00 | 59 | 1013.7 |
| 20260505175311 | 53 | 248 | 5.2 | 7.8 | 0.00 | 0.00 | 0.00 | 59 | 1013.7 |
| 20260505174808 | 53 | 306 | 6.1 | 8.7 | 0.00 | 0.00 | 0.00 | 60 | 1013.4 |
| 20260505174305 | 52 | 243 | 5.2 | 6.1 | 0.00 | 0.00 | 0.00 | 60 | 1013.6 |
| 20260505173801 | 54 | 249 | 8.7 | 12.2 | 0.00 | 0.00 | 0.00 | 57 | 1013.7 |
| 20260505173257 | 54 | 242 | 5.2 | 7.8 | 0.00 | 0.00 | 0.00 | 57 | 1013.6 |
| 20260505172754 | 53 | 243 | 1.7 | 2.6 | 0.00 | 0.00 | 0.00 | 59 | 1013.6 |
| 20260505172252 | 53 | 254 | 2.6 | 2.6 | 0.00 | 0.00 | 0.00 | 58 | 1013.8 |
| 20260505171747 | 51 | 235 | 5.2 | 7.8 | 0.00 | 0.00 | 0.00 | 60 | 1013.9 |
| 20260505171244 | 51 | 251 | 7.0 | 10.4 | 0.00 | 0.00 | 0.00 | 62 | 1013.8 |
| 20260505170740 | 51 | 251 | 2.6 | 2.6 | 0.00 | 0.00 | 0.00 | 60 | 1013.8 |
| 20260505170237 | 50 | 239 | 1.7 | 1.7 | 0.00 | 0.00 | 0.00 | 63 | 1013.8 |
| 20260505165732 | 49 | 239 | 0.9 | 1.7 | 0.00 | 0.00 | 0.00 | 64 | 1013.9 |
| 20260505165229 | 49 | 229 | 1.7 | 1.7 | 0.00 | 0.00 | 0.00 | 63 | 1013.8 |
| 20260505164724 | 50 | 296 | 2.6 | 4.3 | 0.00 | 0.00 | 0.00 | 62 | 1013.8 |
| 20260505164222 | 50 | 255 | 1.7 | 2.6 | 0.00 | 0.00 | 0.00 | 63 | 1013.8 |
| 20260505163720 | 49 | 285 | 0.9 | 1.7 | 0.00 | 0.00 | 0.00 | 65 | 1013.7 |
| 20260505163218 | 49 | 277 | 1.7 | 2.6 | 0.00 | 0.00 | 0.00 | 64 | 1013.9 |
| 20260505162715 | 49 | 90 | 1.7 | 2.6 | 0.00 | 0.00 | 0.00 | 64 | 1013.9 |
| 20260505162212 | 49 | 296 | 0.9 | 1.7 | 0.00 | 0.00 | 0.00 | 63 | 1014.1 |
| 20260505161709 | 49 | 324 | 2.6 | 2.6 | 0.00 | 0.00 | 0.00 | 63 | 1014.1 |
| 20260505161207 | 48 | 62 | 0.9 | 1.7 | 0.00 | 0.00 | 0.00 | 64 | 1014.1 |
| 20260505160704 | 48 | 262 | 1.7 | 1.7 | 0.00 | 0.00 | 0.00 | 63 | 1014.6 |
| 20260505160201 | 48 | 234 | 2.6 | 2.6 | 0.00 | 0.00 | 0.00 | 62 | 1014.3 |
| 20260505153140 | 47 | 266 | 3.5 | 4.3 | 0.00 | 0.00 | 0.00 | 67 | 1014.3 |
| 20260505152637 | 47 | 243 | 6.1 | 7.8 | 0.00 | 0.00 | 0.00 | 69 | 1014.4 |
| 20260505152133 | 47 | 264 | 4.3 | 4.3 | 0.00 | 0.00 | 0.00 | 68 | 1014.2 |
| 20260505151628 | 46 | 246 | 2.6 | 2.6 | 0.00 | 0.00 | 0.00 | 70 | 1014.4 |
| 20260505151126 | 46 | 264 | 4.3 | 4.3 | 0.00 | 0.00 | 0.00 | 71 | 1014.4 |
| 20260505150622 | 46 | 252 | 4.3 | 6.1 | 0.00 | 0.00 | 0.00 | 72 | 1014.4 |
| 20260505150119 | 46 | 261 | 3.5 | 4.3 | 0.00 | 0.00 | 0.00 | 77 | 1014.6 |
| 20260505140548 | 48 | 279 | 4.3 | 4.3 | 0.00 | 0.00 | 0.00 | 60 | 1014.6 |
| 20260505125001 | 47 | 265 | 0.9 | 1.7 | 0.00 | 0.00 | 0.00 | 58 | 1013.9 |
| 20260505124458 | 47 | 241 | 1.7 | 1.7 | 0.00 | 0.00 | 0.00 | 57 | 1013.9 |
| 20260505123954 | 47 | 270 | 1.7 | 2.6 | 0.00 | 0.00 | 0.00 | 57 | 1014.1 |
| 20260505123451 | 47 | 260 | 1.7 | 2.6 | 0.00 | 0.00 | 0.00 | 56 | 1014.3 |
| 20260505122947 | 47 | 254 | 2.6 | 2.6 | 0.00 | 0.00 | 0.00 | 55 | 1014.4 |
| 20260505122444 | 48 | 244 | 2.6 | 4.3 | 0.00 | 0.00 | 0.00 | 55 | 1014.1 |
| 20260505121941 | 48 | 258 | 2.6 | 4.3 | 0.00 | 0.00 | 0.00 | 55 | 1014.3 |
| 20260505121438 | 48 | 285 | 2.6 | 6.1 | 0.00 | 0.00 | 0.00 | 54 | 1014.1 |
| 20260505120933 | 48 | 274 | 2.6 | 2.6 | 0.00 | 0.00 | 0.00 | 54 | 1014.3 |
| 20260505120430 | 48 | 245 | 1.7 | 1.7 | 0.00 | 0.00 | 0.00 | 53 | 1014.4 |
| 20260505115929 | 48 | 276 | 2.6 | 2.6 | 0.00 | 0.00 | 0.00 | 52 | 1014.1 |
| 20260505115426 | 48 | 267 | 1.7 | 1.7 | 0.00 | 0.00 | 0.00 | 51 | 1014.1 |
| 20260505114924 | 48 | 275 | 3.5 | 4.3 | 0.00 | 0.00 | 0.00 | 51 | 1013.9 |
| 20260505114420 | 48 | 267 | 4.3 | 6.1 | 0.00 | 0.00 | 0.00 | 50 | 1013.9 |
| 20260505113916 | 48 | 263 | 2.6 | 2.6 | 0.00 | 0.00 | 0.00 | 49 | 1013.9 |
| 20260505113413 | 48 | 249 | 5.2 | 10.4 | 0.00 | 0.00 | 0.00 | 49 | 1013.9 |
| 20260505112909 | 48 | 256 | 4.3 | 6.1 | 0.00 | 0.00 | 0.00 | 48 | 1014.1 |
| 20260505112407 | 49 | 253 | 3.5 | 4.3 | 0.00 | 0.00 | 0.00 | 48 | 1013.9 |
| 20260505111902 | 49 | 245 | 2.6 | 2.6 | 0.00 | 0.00 | 0.00 | 47 | 1013.8 |
| 20260505111357 | 49 | 270 | 5.2 | 8.7 | 0.00 | 0.00 | 0.00 | 47 | 1014.1 |
| 20260505110854 | 49 | 251 | 3.5 | 4.3 | 0.00 | 0.00 | 0.00 | 46 | 1014.2 |
| 20260505110351 | 49 | 288 | 5.2 | 6.1 | 0.00 | 0.00 | 0.00 | 46 | 1014.2 |
| 20260505101821 | 50 | 271 | 4.3 | 6.1 | 0.00 | 0.00 | 0.00 | 44 | 1013.8 |
| 20260505101316 | 50 | 285 | 2.6 | 2.6 | 0.00 | 0.00 | 0.00 | 43 | 1013.9 |
| 20260505100813 | 49 | 266 | 4.3 | 6.1 | 0.00 | 0.00 | 0.00 | 44 | 1014.1 |
| 20260505100310 | 49 | 253 | 1.7 | 2.6 | 0.00 | 0.00 | 0.00 | 43 | 1013.9 |
| 20260505095805 | 50 | 247 | 2.6 | 2.6 | 0.00 | 0.00 | 0.00 | 43 | 1014.2 |
| 20260505095304 | 49 | 241 | 4.3 | 4.3 | 0.00 | 0.00 | 0.00 | 43 | 1014.1 |
| 20260505094758 | 49 | 256 | 2.6 | 2.6 | 0.00 | 0.00 | 0.00 | 43 | 1013.9 |
| 20260505094256 | 49 | 271 | 0.0 | 0.0 | 0.00 | 0.00 | 0.00 | 43 | 1013.8 |
| 20260505093751 | 49 | 248 | 0.9 | 1.7 | 0.00 | 0.00 | 0.00 | 43 | 1013.8 |
| 20260505093249 | 50 | 251 | 0.0 | 0.0 | 0.00 | 0.00 | 0.00 | 43 | 1013.4 |
| 20260505092745 | 50 | 34 | 3.5 | 4.3 | 0.00 | 0.00 | 0.00 | 43 | 1013.6 |
| 20260505092244 | 50 | 247 | 2.6 | 2.6 | 0.00 | 0.00 | 0.00 | 43 | 1013.7 |
| 20260505091741 | 50 | 249 | 2.6 | 2.6 | 0.00 | 0.00 | 0.00 | 43 | 1013.7 |
| 20260505091239 | 51 | 268 | 4.3 | 7.8 | 0.00 | 0.00 | 0.00 | 43 | 1013.4 |
| 20260505090737 | 51 | 251 | 2.6 | 4.3 | 0.00 | 0.00 | 0.00 | 43 | 1013.7 |
| 20260505090235 | 51 | 268 | 4.3 | 7.8 | 0.00 | 0.00 | 0.00 | 42 | 1013.6 |
| 20260505085732 | 51 | 231 | 5.2 | 7.8 | 0.00 | 0.00 | 0.00 | 42 | 1013.8 |
| 20260505085230 | 51 | 264 | 6.1 | 8.7 | 0.00 | 0.00 | 0.00 | 41 | 1013.6 |
| 20260505084727 | 51 | 318 | 8.7 | 12.2 | 0.00 | 0.00 | 0.00 | 41 | 1013.7 |
| 20260505084226 | 52 | 241 | 8.7 | 12.2 | 0.00 | 0.00 | 0.00 | 41 | 1013.7 |
| 20260505083722 | 52 | 262 | 5.2 | 7.8 | 0.00 | 0.00 | 0.00 | 41 | 1013.9 |
| 20260505083219 | 52 | 292 | 6.1 | 10.4 | 0.00 | 0.00 | 0.00 | 41 | 1013.8 |
| 20260505082715 | 52 | 263 | 4.3 | 6.1 | 0.00 | 0.00 | 0.00 | 41 | 1013.8 |
| 20260505082213 | 52 | 276 | 2.6 | 4.3 | 0.00 | 0.00 | 0.00 | 42 | 1013.9 |
| 20260505081708 | 52 | 296 | 4.3 | 4.3 | 0.00 | 0.00 | 0.00 | 42 | 1014.2 |
| 20260505081206 | 52 | 282 | 5.2 | 7.8 | 0.00 | 0.00 | 0.00 | 42 | 1014.3 |
| 20260505080703 | 52 | 279 | 8.7 | 14.8 | 0.00 | 0.00 | 0.00 | 42 | 1014.1 |
| 20260505080158 | 52 | 285 | 7.8 | 10.4 | 0.00 | 0.00 | 0.00 | 42 | 1014.6 |
| 20260505075654 | 52 | 300 | 5.2 | 6.1 | 0.00 | 0.00 | 0.00 | 42 | 1014.7 |
| 20260505075151 | 53 | 337 | 5.2 | 10.4 | 0.00 | 0.00 | 0.00 | 42 | 1014.4 |
| 20260505074648 | 53 | 283 | 5.2 | 6.1 | 0.00 | 0.00 | 0.00 | 41 | 1014.4 |
| 20260505074145 | 53 | 271 | 4.3 | 6.1 | 0.00 | 0.00 | 0.00 | 41 | 1014.2 |
| 20260505073643 | 53 | 287 | 5.2 | 7.8 | 0.00 | 0.00 | 0.00 | 40 | 1014.2 |
| 20260505073141 | 53 | 208 | 2.6 | 2.6 | 0.00 | 0.00 | 0.00 | 39 | 1014.3 |
| 20260505072636 | 53 | 262 | 5.2 | 7.8 | 0.00 | 0.00 | 0.00 | 39 | 1013.8 |
| 20260505072133 | 53 | 272 | 6.1 | 8.7 | 0.00 | 0.00 | 0.00 | 39 | 1014.2 |
| 20260505071629 | 53 | 239 | 5.2 | 7.8 | 0.00 | 0.00 | 0.00 | 39 | 1013.9 |
| 20260505071127 | 53 | 224 | 4.3 | 4.3 | 0.00 | 0.00 | 0.00 | 39 | 1014.3 |